Location: Eekst
(53.0191°N, 6.7366°E)
Time: 08:24:55
(UTC+00:00)

Cosmos 1825 Rocket - Pass Details

Date: 15 May 2026
Orbit: 598 x 622 km, 82.5° (Epoch: 5 June)

Event Time Altitude Azimuth Distance (km) Brightness Sun altitude
Rises 20:26:45 0° 354° (N) 2,872 7.9 -7.9°
Reaches altitude 10° 20:29:07 10° 3° (N) 1,968 6.8 -8.1°
Maximum altitude 20:33:10 36° 71° (ENE) 965 4.4 -8.5°
Enters shadow 20:36:54 12° 137° (SE) 1,854 5.3 -8.9°
